Regional Weather Roundup
Issued by NWS

Home | Current Version | Previous Version | Graphics & Text | Print | Product List | Glossary On
Versions: 1 2 3 4 5 6 7 8 9 10 11 12 13 14 15 16 17 18 19 20 21 22 23 24 25 26 27
000
ASUS45 KBOU 181110
RWRCO

WEATHER ROUNDUP FOR COLORADO
NATIONAL WEATHER SERVICE DENVER/BOULDER CO
400 AM MST THU JAN 18 2018

NOTE: "FAIR" INDICATES FEW OR NO CLOUDS BELOW 12000 FEET WITH NO
SIGNIFICANT WEATHER AND/OR OBSTRUCTIONS TO VISIBILITY.

COZ001>005-013-030-031-181200-
...NORTHWEST COLORADO...

CITY           SKY/WX    TMP DP  RH WIND       PRES   REMARKS
CRAIG          FAIR       8   3  80 W6        30.31F WCI  -2
HAYDEN         FAIR     N/A N/A N/A E13       30.32F
MEEKER         FAIR      19  15  84 NE5       30.30F WCI  12
RABBIT EARS PA FAIR      19  18  93 W6        30.31F WCI  11
STEAMBOAT SPGS FAIR       8   5  89 CALM      30.33F
WALDEN         FAIR      10   5  79 SE8       30.30F WCI  -1
$$

COZ006>008-011-181200-
...WEST CENTRAL VALLEYS...

CITY           SKY/WX    TMP DP  RH WIND       PRES   REMARKS
GRAND JUNCTION FAIR      24  15  68 E5        30.33F WCI  18
MONTROSE       FAIR      17  11  77 S8        30.37F WCI   7
EAGLE          FAIR      10   5  80 CALM      30.43F
RIFLE          FAIR      20  14  77 SE5       30.36F WCI  13
DELTA          FAIR      21  13  71 CALM      30.36F
NUCLA          FAIR      21  14  73 E5        30.35F WCI  15
$$

COZ017>023-064>068-181200-
...SOUTHWEST COLORADO...

CITY           SKY/WX    TMP DP  RH WIND       PRES   REMARKS
DURANGO        FAIR      13  11  92 E3        30.30F
CORTEZ         FAIR      15  11  83 E3        30.31F
PAGOSA SPRINGS FAIR      15  13  91 CALM      30.30F
TELLURIDE      FAIR      23   5  46 SE7       30.33F WCI  15
WOLF CREEK PAS FAIR      23  -6  28 NW3       30.40F
$$

COZ009-010-012-014-032>034-037-058>063-181200-
...CENTRAL COLORADO...

CITY           SKY/WX    TMP DP  RH WIND       PRES   REMARKS
ASPEN          FAIR      14   7  73 SW7       30.33F WCI   4
BUENA VISTA    FAIR      22   7  52 W6        30.26F WCI  14
COPPER MTN     NOT AVBL
BERTHOUD PASS  FAIR      14   3  62 NW26G32   30.30S WCI  -6
COTTONWOOD PAS   N/A     34   3  27 W3        30.27F
GUNNISON       FAIR      -2  -5  87 CALM      30.41F
KREMMLING      FAIR       3   0  85 CALM      30.42S
LEADVILLE      FAIR      14   8  77 NE10      30.30F WCI   1
MONARCH PASS   FAIR      21   3  45 W15G26    30.42F WCI   8
SALIDA         FAIR      26   9  48 NW10      30.34F WCI  17
SUNLIGHT       FAIR      23   9  54 NW3       30.38F
WILKERSON PASS FAIR      28 -17  13 N15G28    30.30F WCI  17
$$

COZ069>075-181200-
...SAN LUIS VALLEY/SANGRE DE CRISTO MOUNTAINS...

CITY           SKY/WX    TMP DP  RH WIND       PRES   REMARKS
ALAMOSA        FAIR      -1 -10  65 CALM      30.30F
DEL NORTE      FAIR      20  -1  40 W16       30.29F WCI   6
LA VETA PASS   FAIR      23   1  39 SW26G35     N/A  WCI   6
SAGUACHE       FAIR      21   9  58 CALM      30.30F
$$

COZ035-036-038>040-181200-
...NORTHERN COLORADO FRONT RANGE...

CITY           SKY/WX    TMP DP  RH WIND       PRES   REMARKS
DENVER INTL AP FAIR      34  10  37 S15       30.12F WCI  24
DMNS CITY PARK NOT AVBL
AURORA         PTCLDY    31  10  41 S10       30.12F WCI  22
FRONT RANGE AP FAIR      28  16  61 S8        30.13F WCI  19
ERIE MUNI ARPT FAIR      19  13  77 S3        30.17F
BOULDER MUN AP FAIR      32  18  55 S3        30.10F
CENTENNIAL     FAIR      28  10  46 SE8       30.13F WCI  20
BROOMFIELD     FAIR      32  12  43 W6        30.12F WCI  26
FORT COLLINS   FAIR      25  15  66 VRB3      30.11F
LONGMONT       FAIR      20  13  76 CALM      30.13F
$$

COZ041-046-047-076>085-087-088-181200-
...PIKES PEAK/PALMER DIVIDE AND SOUTHERN FOOTHILLS...

CITY           SKY/WX    TMP DP  RH WIND       PRES   REMARKS
COLO. SPRINGS  FAIR      21   3  45 N10       30.17F WCI  10
A. F. ACADEMY  FAIR      18   6  58 N12       30.15F WCI   6
SCHRIEVER AFB  FAIR      27   1  32 N3        30.17F
CHEYENNE MTN   FAIR      37   4  25 CALM      30.11F
ELLICOTT         N/A    N/A N/A N/A CALM      30.15F
FALCON         FAIR      21   4  47 NW5       30.17F WCI  14
FORT CARSON    FAIR      27   5  39 N14       30.14F WCI  16
LIMON          FAIR      13   8  81 N8        30.14F WCI   2
MONUMENT HILL  FAIR      25   9  50 SW9       30.17F WCI  15
CANON CITY     FAIR      36   5  27 W21       30.15F
WALSENBURG     FAIR      34   7  32 SW12      30.17F WCI  25
TRINIDAD       FAIR      25   3  38 W10       30.18F WCI  15
$$

COZ042>045-048>051-090-091-181200-
...NORTHEAST COLORADO...

CITY           SKY/WX    TMP DP  RH WIND       PRES   REMARKS
GREELEY ARPT   FAIR      13   8  81 NW5       30.13F WCI   5
AKRON          FAIR      28  14  55 SW14      30.10F WCI  17
BURLINGTON     FAIR      23  12  62 W12       30.13F WCI  12
WRAY           FAIR      19  14  79 W3        30.12F
YUMA           FAIR      23  14  68 W10       30.11F WCI  12
STERLING       FAIR      19  14  79 S9        30.10F WCI   9
HOLYOKE        FAIR      25  19  80 W9        30.10F WCI  15
FORT MORGAN    FAIR      17  12  81 W8        30.12F WCI   6
$$

COZ086-089-092>099-181200-
...SOUTHEAST COLORADO...

CITY           SKY/WX    TMP DP  RH WIND       PRES   REMARKS
PUEBLO         FAIR      14   5  67 NW7       30.17F WCI   4
LA JUNTA       FAIR      23  10  57 W8        30.18F WCI  14
LAMAR          FAIR      12   7  80 SW8       30.16F WCI   0
SPRINGFIELD      N/A     17   8  67 W5        30.17F WCI  10
$$




USA.gov is the U.S. government's official web portal to all federal, state and local government web resources and services.